This is the latest recevied weather packets stored in our database for station/object W7TRD. If no packets are shown the sender has not sent any weather packets the latest 10 day(s).
| Time | Temp. | Humidity | Pressure | Rain* | Wind** | Luminosity | Snow |
|---|---|---|---|---|---|---|---|
| 1777089633 | 13.89° C | 33% | 1014.6 hPa | 0 mm | - | 0 W/m² | - |
| 1777089328 | 13.89° C | 33% | 1014.5 hPa | 0 mm | - | 0 W/m² | - |
| 1777089023 | 13.89° C | 32% | 1014.3 hPa | 0 mm | - | 0 W/m² | - |
| 1777088718 | 13.89° C | 33% | 1014.3 hPa | 0 mm | - | 0 W/m² | - |
| 1777088414 | 13.89° C | 33% | 1014.3 hPa | 0 mm | - | 0 W/m² | - |
| 1777088108 | 13.89° C | 33% | 1014.3 hPa | 0 mm | - | 0 W/m² | - |
| 1777087803 | 14.44° C | 33% | 1014.5 hPa | 0 mm | - | 0 W/m² | - |
| 1777087497 | 14.44° C | 32% | 1014.3 hPa | 0 mm | - | 0 W/m² | - |
| 1777087192 | 14.44° C | 32% | 1014.4 hPa | 0 mm | - | 1 W/m² | - |
| 1777086888 | 15° C | 31% | 1014.4 hPa | 0 mm | - | 1 W/m² | - |
| 1777086582 | 15° C | 31% | 1014.3 hPa | 0 mm | - | 3 W/m² | - |
| 1777086279 | 15.56° C | 29% | 1014.5 hPa | 0 mm | - | 4 W/m² | - |
| 1777085978 | 15.56° C | 28% | 1014.3 hPa | 0 mm | - | 6 W/m² | - |
| 1777085677 | 15.56° C | 29% | 1014.4 hPa | 0 mm | - | 9 W/m² | - |
| 1777085371 | 15.56° C | 29% | 1014.6 hPa | 0 mm | - | 12 W/m² | - |
| 1777085068 | 16.11° C | 30% | 1014.4 hPa | 0 mm | - | 15 W/m² | - |
| 1777084764 | 16.11° C | 31% | 1014.3 hPa | 0 mm | - | 18 W/m² | - |
| 1777084459 | 16.67° C | 30% | 1014.5 hPa | 0 mm | - | 21 W/m² | - |
| 1777084155 | 17.22° C | 30% | 1014.7 hPa | 0 mm | - | 24 W/m² | - |
| 1777083851 | 17.22° C | 31% | 1014.2 hPa | 0 mm | - | 29 W/m² | - |
| 1777083549 | 17.22° C | 29% | 1014.3 hPa | 0 mm | - | 32 W/m² | - |
| 1777083245 | 17.78° C | 30% | 1014.5 hPa | 0 mm | - | 37 W/m² | - |
| 1777082940 | 17.78° C | 30% | 1014.6 hPa | 0 mm | - | 46 W/m² | - |
| 1777082635 | 18.33° C | 30% | 1014.5 hPa | 0 mm | - | 54 W/m² | - |
| 1777082331 | 18.33° C | 31% | 1014.4 hPa | 0 mm | - | 62 W/m² | - |
* Rain latest hour (hover to see other rain measurements)
** Current wind speed in m/s (hover to see current wind gust speed)